Volver al catálogo

STARLINK-37094

ActivoComunicacionesVLEO
NORAD 68241·PAYLOAD·🇺🇸 United States

Lanzado Mar 17, 2026 desde Vandenberg Space Force Base

Loading…

Próximos Pases (próximas 24 horas)

TLE

ActualizadoSource: CelesTrak SupGP

Época: Sep 15, 2026, 03:20 UTC

1 68241C 26054K   26258.13937500  .00041103  00000+0  12145-2 0  2580
2 68241  53.1559 134.4573 0001218  87.8896 227.9837 15.34367532    14

Sigue STARLINK-37094 en tiempo real con AllMySat

Download on the App Store